Jaipur, India

3:39 AM IST on April 27, 2017 (GMT +0530)
Jaipur

Weather History for VIJP - January, 2013

Change the Weather History Date:

Saturday, January 5, 2013

  Actual Average Record
Temperature  
Mean Temperature 53 °F -  
Max Temperature 67 °F - - ()
Min Temperature 39 °F - - ()
Degree Days  
Heating Degree Days 12    
Growing Degree Days 3 (Base 50)    
Moisture  
Dew Point 37 °F    
Average Humidity 64    
Maximum Humidity 93    
Minimum Humidity 17    
Precipitation  
Precipitation 0.00 in - - ()
Sea Level Pressure  
Sea Level Pressure 29.98 in    
Wind  
Wind Speed 2 mph ()    
Max Wind Speed 6 mph    
Max Gust Speed -    
Visibility 1.2 miles    
Events      
T = Trace of Precipitation, MM = Missing Value Source: Averaged Metar Reports

Daily Weather History Graph

Daily Weather History Graph

Search for Another Location

Airport or City:

Trip Planner

Search our weather history database for the weather conditions in past years. The results will help you decide how hot, cold, wet, or windy it might be!

Date:

Astronomy

Jan. 05, 2013 Rise Set
Actual Time 7:16 AM IST 5:47 PM IST
Civil Twilight 6:51 AM IST 6:13 PM IST
Nautical Twilight 6:22 AM IST 6:42 PM IST
Astronomical Twilight 5:54 AM IST 7:10 PM IST
Moon No Moon Rise 12:02 PM IST (1/5)
Length of Visible Light 11h 21m
Length of Day
10h 31m
Waning Gibbous, 49% of the Moon is Illuminated
Jan 5
Waning Gibbous
Jan 12
New
Jan 19
First Quarter
Jan 27
Full
Feb 3
Last Quarter

Hourly Weather History & Observations

Time (IST) Temp. Dew Point Humidity Pressure Visibility Wind Dir Wind Speed Gust Speed Precip Events Conditions
12:00 AM 50.0 °F 39.2 °F 66% 30.01 in 0.9 mi Variable 1.2 mph - N/A   Smoke
1:00 AM 46.4 °F 39.2 °F 76% 29.98 in 0.9 mi Calm Calm - N/A   Smoke
2:00 AM 44.6 °F 41.0 °F 87% 29.98 in 0.9 mi Calm Calm - N/A   Smoke
2:30 AM 45 °F 40 °F 75% 30.02 in 1 mi Calm Calm - -   Smoke
2:30 AM 44.6 °F 41.0 °F 87% 29.98 in 0.9 mi Calm Calm - N/A   Smoke
3:00 AM 42.8 °F 39.2 °F 87% 29.98 in 0.9 mi Calm Calm - N/A   Smoke
5:00 AM 42.8 °F 39.2 °F 87% 29.95 in 0.9 mi Calm Calm - N/A   Smoke
5:30 AM 41 °F 39 °F 89% 29.98 in 1 mi Calm Calm - -   Mist
6:00 AM 42.8 °F 37.4 °F 81% 29.95 in 0.9 mi Calm Calm - N/A   Mist
6:30 AM 41.0 °F 39.2 °F 93% 29.95 in 0.9 mi Calm Calm - N/A   Mist
7:00 AM 41.0 °F 39.2 °F 93% 29.98 in 0.7 mi Calm Calm - N/A   Scattered Clouds
7:30 AM 41.0 °F 37.4 °F 87% 29.98 in 0.7 mi Calm Calm - N/A   Scattered Clouds
8:00 AM 41.0 °F 37.4 °F 87% 29.98 in 0.7 mi Calm Calm - N/A   Scattered Clouds
8:30 AM 43 °F 38 °F 78% 30.02 in 1 mi Calm Calm - -   Mist
9:00 AM 50.0 °F 42.8 °F 76% 30.01 in 0.7 mi Variable 2.3 mph - N/A   Smoke
10:00 AM 55.4 °F 35.6 °F 47% 30.04 in 1.2 mi SE 4.6 mph - N/A   Smoke
11:00 AM 59.0 °F 39.2 °F 48% 30.04 in 1.2 mi Variable 3.5 mph - N/A   Smoke
1:00 PM 64.4 °F 33.8 °F 32% 29.98 in 1.9 mi West 5.8 mph - N/A   Haze
2:00 PM 64.4 °F 33.8 °F 32% 29.95 in 2.2 mi NNW 4.6 mph - N/A   Haze
2:30 PM 67 °F 33 °F 17% 29.89 in 1 mi 3.5 mph - -   Haze
2:30 PM 66.2 °F 30.2 °F 26% 29.92 in 2.2 mi Variable 5.8 mph - N/A   Haze
4:00 PM 66.2 °F 28.4 °F 24% 29.92 in 2.2 mi Variable 5.8 mph - N/A   Haze
5:00 PM 64.4 °F 28.4 °F 26% 29.92 in 2.2 mi Variable 3.5 mph - N/A   Haze
5:30 PM 62.6 °F 28.4 °F 27% 29.95 in 2.2 mi Variable 3.5 mph - N/A   Haze
6:00 PM 60.8 °F 30.2 °F 31% 29.95 in 2.2 mi Variable 2.3 mph - N/A   Haze
7:30 PM 53.6 °F 39.2 °F 58% 29.98 in 1.2 mi ENE 5.8 mph - N/A   Smoke
8:30 PM 52 °F 44 °F 67% 29.99 in 1 mi East 4.6 mph - -   Mist
8:30 PM 51.8 °F 42.8 °F 71% 30.01 in 0.8 mi East 4.6 mph - N/A   Smoke
9:00 PM 50.0 °F 42.8 °F 76% 30.01 in 0.7 mi ENE 3.5 mph - N/A   Mist
9:30 PM 50.0 °F 42.8 °F 76% 30.01 in 0.7 mi Variable 2.3 mph - N/A   Mist
10:00 PM 48.2 °F 41.0 °F 76% 30.01 in 0.6 mi East 4.6 mph - N/A   Mist
11:00 PM 48.2 °F 37.4 °F 66% 30.01 in 0.6 mi Variable 3.5 mph - N/A   Mist
11:30 PM 46 °F 36 °F 59% 30.02 in 1 mi East 3.5 mph - -   Smoke